FIN4IR EKVG-BIKF

Flight info

Callsign FIN4IR
Flight time 1h 15m
Altitude 38000
Route M078F380 MY2T MY DCT ING DCT NASBU NASBU5N
Aircraft A321/M-SDE3FGHIRWY/LB1

Departure

Time 2026-05-07 13:27
Airport Vágar Airport (EKVG)

Arrival

Time 2026-05-07 14:43
Airport Keflavik International Airport (BIKF)
Time Latitude Longitude Altitude Speed Heading
2026-05-07 13:16 62.06713 -7.28025 282 ft 0 kts 74°
2026-05-07 13:23 62.06706 -7.28024 281 ft 0 kts 234°
2026-05-07 13:23 62.06711 -7.28033 281 ft 3 kts
2026-05-07 13:23 62.06629 -7.27851 287 ft 11 kts 151°
2026-05-07 13:24 62.06612 -7.27842 288 ft 11 kts 195°
2026-05-07 13:24 62.06591 -7.27951 289 ft 0 kts 266°
2026-05-07 13:24 62.06582 -7.28116 288 ft 23 kts 261°
2026-05-07 13:24 62.06599 -7.28225 284 ft 0 kts 23°
2026-05-07 13:25 62.06567 -7.28185 288 ft 23 kts 193°
2026-05-07 13:25 62.06573 -7.28549 265 ft 46 kts 300°
2026-05-07 13:25 62.06704 -7.29149 196 ft 21 kts 298°
2026-05-07 13:25 62.06718 -7.29132 196 ft 7 kts 136°
2026-05-07 13:26 62.06706 -7.29100 199 ft 0 kts 121°
2026-05-07 13:26 62.06658 -7.28923 218 ft 31 kts 120°
2026-05-07 13:26 62.06493 -7.28305 289 ft 66 kts 116°
2026-05-07 13:26 62.06203 -7.27084 285 ft 122 kts 118°
2026-05-07 13:27 62.05721 -7.25194 680 ft 154 kts 118°
2026-05-07 13:27 62.05241 -7.23247 1420 ft 150 kts 117°
2026-05-07 13:27 62.04774 -7.21248 1948 ft 152 kts 113°
2026-05-07 13:27 62.04431 -7.19070 2283 ft 164 kts 103°
2026-05-07 13:28 62.04268 -7.16516 2609 ft 182 kts 94°
2026-05-07 13:28 62.04197 -7.13736 2949 ft 198 kts 92°
2026-05-07 13:28 62.04121 -7.10713 3276 ft 214 kts 96°
2026-05-07 13:28 62.03811 -7.07458 3549 ft 233 kts 108°
2026-05-07 13:29 62.03136 -7.04197 3859 ft 251 kts 121°
2026-05-07 13:29 62.02047 -7.01134 4243 ft 264 kts 135°
2026-05-07 13:29 62.00630 -6.98685 4823 ft 267 kts 148°
2026-05-07 13:29 61.98961 -6.96996 5427 ft 268 kts 162°
2026-05-07 13:30 61.97119 -6.96190 5979 ft 275 kts 176°
2026-05-07 13:30 61.95233 -6.96272 6830 ft 276 kts 187°
2026-05-07 13:30 61.93359 -6.97147 7672 ft 278 kts 198°
2026-05-07 13:30 61.91606 -6.98774 8445 ft 281 kts 210°
2026-05-07 13:31 61.89996 -7.01169 9217 ft 285 kts 221°
2026-05-07 13:31 61.88645 -7.04178 9971 ft 288 kts 232°
2026-05-07 13:31 61.87578 -7.07786 10721 ft 291 kts 244°
2026-05-07 13:31 61.86885 -7.11766 11441 ft 294 kts 256°
2026-05-07 13:32 61.86588 -7.16081 12156 ft 297 kts 268°
2026-05-07 13:32 61.86725 -7.20406 12843 ft 300 kts 281°
2026-05-07 13:32 61.87307 -7.24690 13527 ft 303 kts 293°
2026-05-07 13:32 61.88301 -7.28583 14184 ft 306 kts 306°
2026-05-07 13:33 61.89707 -7.32023 14836 ft 309 kts 318°
2026-05-07 13:33 61.91443 -7.34779 15462 ft 313 kts 328°
2026-05-07 13:33 61.93334 -7.37157 15795 ft 327 kts 331°
2026-05-07 13:33 61.94124 -7.38106 15902 ft 333 kts 331°
2026-05-07 13:34 61.95463 -7.39709 16094 ft 342 kts 331°
2026-05-07 13:34 61.99661 -7.44848 17189 ft 351 kts 330°
2026-05-07 13:34 62.01799 -7.47513 17788 ft 354 kts 330°
2026-05-07 13:35 62.03970 -7.50234 18368 ft 357 kts 330°
2026-05-07 13:35 62.06171 -7.53002 18936 ft 360 kts 330°
2026-05-07 13:35 62.08376 -7.55813 19487 ft 364 kts 327°
2026-05-07 13:35 62.10350 -7.59318 20005 ft 367 kts 313°
2026-05-07 13:36 62.11888 -7.63736 20542 ft 369 kts 300°
2026-05-07 13:36 62.13110 -7.68719 21086 ft 372 kts 296°
2026-05-07 13:36 62.14234 -7.73660 21575 ft 375 kts 295°
2026-05-07 13:36 62.15375 -7.78727 22069 ft 378 kts 295°
2026-05-07 13:37 62.16512 -7.83759 22554 ft 381 kts 295°
2026-05-07 13:37 62.17685 -7.88931 23040 ft 384 kts 296°
2026-05-07 13:37 62.18845 -7.94041 23504 ft 387 kts 296°
2026-05-07 13:37 62.20030 -7.99258 23967 ft 389 kts 296°
2026-05-07 13:38 62.21206 -8.04440 24414 ft 392 kts 296°
2026-05-07 13:38 62.22406 -8.09737 24858 ft 395 kts 296°
2026-05-07 13:38 62.23597 -8.15000 25288 ft 397 kts 296°
2026-05-07 13:38 62.24812 -8.20381 25714 ft 400 kts 296°
2026-05-07 13:39 62.26014 -8.25720 26125 ft 403 kts 296°
2026-05-07 13:39 62.27223 -8.31099 26526 ft 405 kts 296°
2026-05-07 13:39 62.28454 -8.36593 26924 ft 408 kts 296°
2026-05-07 13:39 62.29673 -8.42044 27307 ft 410 kts 296°
2026-05-07 13:40 62.30914 -8.47612 27687 ft 413 kts 296°
2026-05-07 13:40 62.32145 -8.53146 28056 ft 415 kts 296°
2026-05-07 13:40 62.33397 -8.58788 28417 ft 417 kts 296°
2026-05-07 13:40 62.34636 -8.64390 28765 ft 420 kts 296°
2026-05-07 13:41 62.35897 -8.70112 29111 ft 422 kts 295°
2026-05-07 13:41 62.37144 -8.75791 29445 ft 424 kts 295°
2026-05-07 13:41 62.38411 -8.81578 29774 ft 426 kts 295°
2026-05-07 13:41 62.39672 -8.87346 30092 ft 429 kts 295°
2026-05-07 13:42 62.40960 -8.93253 30409 ft 431 kts 295°
2026-05-07 13:42 62.42240 -8.99139 30715 ft 433 kts 295°
2026-05-07 13:42 62.43509 -9.04985 31009 ft 435 kts 295°
2026-05-07 13:42 62.44803 -9.10966 31300 ft 437 kts 295°
2026-05-07 13:43 62.46095 -9.16956 31586 ft 439 kts 295°
2026-05-07 13:43 62.47371 -9.22886 31919 ft 439 kts 295°
2026-05-07 13:43 62.48661 -9.28895 32311 ft 438 kts 295°
2026-05-07 13:43 62.49927 -9.34814 32691 ft 437 kts 295°
2026-05-07 13:44 62.51188 -9.40723 33051 ft 436 kts 295°
2026-05-07 13:44 62.52461 -9.46706 33401 ft 435 kts 295°
2026-05-07 13:44 62.53713 -9.52605 33738 ft 435 kts 295°
2026-05-07 13:44 62.54977 -9.58581 34072 ft 434 kts 295°
2026-05-07 13:45 62.56221 -9.64473 34395 ft 433 kts 295°
2026-05-07 13:45 62.57457 -9.70360 34710 ft 433 kts 294°
2026-05-07 13:45 62.58706 -9.76329 35021 ft 432 kts 294°
2026-05-07 13:45 62.59936 -9.82221 35320 ft 431 kts 294°
2026-05-07 13:46 62.61161 -9.88102 35607 ft 431 kts 294°
2026-05-07 13:46 62.62399 -9.94059 35884 ft 430 kts 294°
2026-05-07 13:46 62.63616 -9.99930 36142 ft 430 kts 294°
2026-05-07 13:46 62.64848 -10.05888 36373 ft 430 kts 294°
2026-05-07 13:47 62.66061 -10.11772 36559 ft 431 kts 294°
2026-05-07 13:47 62.67278 -10.17690 36727 ft 432 kts 294°
2026-05-07 13:47 62.68510 -10.23700 36893 ft 433 kts 294°
2026-05-07 13:47 62.69726 -10.29649 37055 ft 434 kts 294°
2026-05-07 13:48 62.70958 -10.35697 37214 ft 435 kts 294°
2026-05-07 13:48 62.72173 -10.41675 37365 ft 436 kts 294°
2026-05-07 13:48 62.73389 -10.47674 37510 ft 437 kts 294°
2026-05-07 13:48 62.74622 -10.53777 37652 ft 438 kts 294°
2026-05-07 13:49 62.75837 -10.59807 37788 ft 438 kts 294°
2026-05-07 13:49 62.77071 -10.65953 37921 ft 439 kts 293°
2026-05-07 13:49 62.78286 -10.72032 38006 ft 441 kts 293°
2026-05-07 13:50 62.80728 -10.84310 38018 ft 441 kts 293°
2026-05-07 13:50 62.83145 -10.96522 38021 ft 441 kts 293°
2026-05-07 13:51 62.85569 -11.08835 38022 ft 441 kts 293°
2026-05-07 13:51 62.87981 -11.21161 38022 ft 441 kts 293°
2026-05-07 13:52 62.90385 -11.33512 38022 ft 441 kts 293°
2026-05-07 13:52 62.92777 -11.45883 38021 ft 441 kts 293°
2026-05-07 13:53 62.95156 -11.58265 38021 ft 441 kts 293°
2026-05-07 13:53 62.97524 -11.70672 38022 ft 441 kts 292°
2026-05-07 13:54 62.99862 -11.83019 38022 ft 441 kts 292°
2026-05-07 13:54 63.02209 -11.95475 38024 ft 443 kts 292°
2026-05-07 13:55 63.04576 -12.08112 38023 ft 451 kts 292°
2026-05-07 13:55 63.06967 -12.20955 38023 ft 457 kts 292°
2026-05-07 13:56 63.09375 -12.33973 38023 ft 461 kts 292°
2026-05-07 13:56 63.11804 -12.47102 38023 ft 464 kts 292°
2026-05-07 13:57 63.14237 -12.60286 38023 ft 464 kts 292°
2026-05-07 13:57 63.16628 -12.73430 38022 ft 464 kts 291°
2026-05-07 13:58 63.19023 -12.86733 38022 ft 464 kts 291°
2026-05-07 13:58 63.21396 -13.00006 38022 ft 464 kts 291°
2026-05-07 13:59 63.23757 -13.13300 38022 ft 464 kts 291°
2026-05-07 13:59 63.26089 -13.26519 38022 ft 464 kts 291°
2026-05-07 14:00 63.28426 -13.39856 38022 ft 464 kts 291°
2026-05-07 14:00 63.30750 -13.53212 38022 ft 464 kts 291°
2026-05-07 14:01 63.33062 -13.66600 38022 ft 464 kts 290°
2026-05-07 14:01 63.35357 -13.80006 38022 ft 464 kts 290°
2026-05-07 14:02 63.37626 -13.93341 38022 ft 464 kts 290°
2026-05-07 14:02 63.39898 -14.06784 38022 ft 464 kts 290°
2026-05-07 14:03 63.42159 -14.20244 38022 ft 464 kts 290°
2026-05-07 14:03 63.44406 -14.33723 38022 ft 464 kts 290°
2026-05-07 14:04 63.46642 -14.47231 38022 ft 464 kts 290°
2026-05-07 14:04 63.48865 -14.60757 38022 ft 464 kts 290°
2026-05-07 14:05 63.51059 -14.74224 38022 ft 464 kts 290°
2026-05-07 14:05 63.53256 -14.87813 38022 ft 464 kts 290°
2026-05-07 14:06 63.55441 -15.01415 38022 ft 464 kts 290°
2026-05-07 14:06 63.57613 -15.15032 38022 ft 464 kts 290°
2026-05-07 14:07 63.59757 -15.28570 38022 ft 464 kts 290°
2026-05-07 14:07 63.61907 -15.42249 38022 ft 464 kts 290°
2026-05-07 14:08 63.64044 -15.55947 38022 ft 464 kts 290°
2026-05-07 14:08 63.66152 -15.69564 38022 ft 464 kts 289°
2026-05-07 14:09 63.68254 -15.83271 38022 ft 464 kts 289°
2026-05-07 14:09 63.70355 -15.97061 38022 ft 464 kts 289°
2026-05-07 14:10 63.72422 -16.10725 38022 ft 464 kts 289°
2026-05-07 14:10 63.74500 -16.24555 38022 ft 464 kts 289°
2026-05-07 14:11 63.76548 -16.38302 38022 ft 464 kts 289°
2026-05-07 14:11 63.78584 -16.52124 38021 ft 464 kts 288°
2026-05-07 14:12 63.80185 -16.65919 38017 ft 443 kts 281°
2026-05-07 14:12 63.81105 -16.79618 38021 ft 441 kts 276°
2026-05-07 14:13 63.81785 -16.93332 38022 ft 441 kts 276°
2026-05-07 14:13 63.82455 -17.07156 38022 ft 441 kts 276°
2026-05-07 14:14 63.83116 -17.20922 38022 ft 441 kts 276°
2026-05-07 14:14 63.83761 -17.34602 38022 ft 441 kts 276°
2026-05-07 14:15 63.84403 -17.48470 38021 ft 441 kts 276°
2026-05-07 14:15 63.85026 -17.62208 38021 ft 441 kts 276°
2026-05-07 14:16 63.85639 -17.76037 37690 ft 440 kts 275°
2026-05-07 14:16 63.85937 -17.82871 37438 ft 437 kts 275°
2026-05-07 14:16 63.86229 -17.89653 37121 ft 434 kts 275°
2026-05-07 14:16 63.86518 -17.96416 36713 ft 431 kts 275°
2026-05-07 14:17 63.86805 -18.03208 36195 ft 431 kts 275°
2026-05-07 14:17 63.87085 -18.09936 35596 ft 431 kts 275°
2026-05-07 14:17 63.87363 -18.16656 34973 ft 433 kts 275°
2026-05-07 14:17 63.87641 -18.23478 34328 ft 434 kts 275°
2026-05-07 14:18 63.87913 -18.30245 33674 ft 435 kts 275°
2026-05-07 14:18 63.88188 -18.37134 33000 ft 437 kts 275°
2026-05-07 14:18 63.88456 -18.43942 32328 ft 438 kts 275°
2026-05-07 14:18 63.88721 -18.50781 31639 ft 439 kts 275°
2026-05-07 14:19 63.88983 -18.57618 31051 ft 437 kts 275°
2026-05-07 14:19 63.89244 -18.64484 30599 ft 431 kts 275°
2026-05-07 14:19 63.89494 -18.71171 30148 ft 426 kts 274°
2026-05-07 14:19 63.89743 -18.77895 29686 ft 422 kts 274°
2026-05-07 14:20 63.89981 -18.84432 29234 ft 417 kts 274°
2026-05-07 14:20 63.90216 -18.90942 28779 ft 413 kts 274°
2026-05-07 14:20 63.90445 -18.97361 28330 ft 409 kts 274°
2026-05-07 14:20 63.90669 -19.03728 27881 ft 404 kts 274°
2026-05-07 14:21 63.90891 -19.10120 27430 ft 400 kts 274°
2026-05-07 14:21 63.91105 -19.16362 26986 ft 396 kts 274°
2026-05-07 14:21 63.91316 -19.22578 26544 ft 393 kts 274°
2026-05-07 14:21 63.91519 -19.28679 26108 ft 389 kts 274°
2026-05-07 14:22 63.91719 -19.34732 25673 ft 385 kts 274°
2026-05-07 14:22 63.91918 -19.40814 25235 ft 382 kts 274°
2026-05-07 14:22 63.92108 -19.46751 24807 ft 379 kts 274°
2026-05-07 14:22 63.92296 -19.52664 24378 ft 376 kts 274°
2026-05-07 14:23 63.92483 -19.58606 23945 ft 373 kts 274°
2026-05-07 14:23 63.92662 -19.64404 23522 ft 370 kts 274°
2026-05-07 14:23 63.92841 -19.70285 23090 ft 368 kts 274°
2026-05-07 14:23 63.93015 -19.76045 22667 ft 365 kts 274°
2026-05-07 14:24 63.93185 -19.81766 22244 ft 363 kts 274°
2026-05-07 14:24 63.93352 -19.87454 21823 ft 361 kts 274°
2026-05-07 14:24 63.93516 -19.93146 21399 ft 359 kts 274°
2026-05-07 14:24 63.93677 -19.98751 20981 ft 356 kts 274°
2026-05-07 14:25 63.93834 -20.04318 20564 ft 354 kts 274°
2026-05-07 14:25 63.93989 -20.09881 20146 ft 352 kts 274°
2026-05-07 14:25 63.94140 -20.15416 19730 ft 351 kts 274°
2026-05-07 14:25 63.94289 -20.20965 19310 ft 349 kts 274°
2026-05-07 14:26 63.94433 -20.26387 18899 ft 347 kts 274°
2026-05-07 14:26 63.94519 -20.31848 18487 ft 345 kts 270°
2026-05-07 14:26 63.94406 -20.37277 18072 ft 343 kts 265°
2026-05-07 14:26 63.94096 -20.42613 17660 ft 342 kts 261°
2026-05-07 14:27 63.93713 -20.47937 17245 ft 340 kts 261°
2026-05-07 14:27 63.93321 -20.53254 16832 ft 339 kts 261°
2026-05-07 14:27 63.92933 -20.58479 16425 ft 337 kts 261°
2026-05-07 14:27 63.92545 -20.63713 16017 ft 336 kts 261°
2026-05-07 14:28 63.92160 -20.68917 15610 ft 334 kts 260°
2026-05-07 14:28 63.91774 -20.74126 15212 ft 333 kts 260°
2026-05-07 14:28 63.91392 -20.79270 14818 ft 331 kts 260°
2026-05-07 14:28 63.91005 -20.84453 14413 ft 329 kts 260°
2026-05-07 14:29 63.90622 -20.89545 14014 ft 328 kts 260°
2026-05-07 14:29 63.90241 -20.94598 13614 ft 326 kts 260°
2026-05-07 14:29 63.89853 -20.99692 13211 ft 324 kts 260°
2026-05-07 14:29 63.89471 -21.04688 12814 ft 322 kts 260°
2026-05-07 14:30 63.89090 -21.09649 12419 ft 320 kts 260°
2026-05-07 14:30 63.88704 -21.14645 12021 ft 318 kts 260°
2026-05-07 14:30 63.88325 -21.19536 11629 ft 316 kts 260°
2026-05-07 14:30 63.87941 -21.24462 11234 ft 314 kts 260°
2026-05-07 14:31 63.87564 -21.29278 10847 ft 312 kts 260°
2026-05-07 14:31 63.87183 -21.34125 10458 ft 309 kts 260°
2026-05-07 14:31 63.86808 -21.38867 10146 ft 304 kts 260°
2026-05-07 14:31 63.86445 -21.43435 10075 ft 289 kts 260°
2026-05-07 14:32 63.86092 -21.47855 9987 ft 278 kts 260°
2026-05-07 14:32 63.85749 -21.52134 9640 ft 277 kts 260°
2026-05-07 14:32 63.85403 -21.56448 9304 ft 276 kts 260°
2026-05-07 14:32 63.85062 -21.60670 8981 ft 273 kts 260°
2026-05-07 14:33 63.84718 -21.64917 8658 ft 271 kts 260°
2026-05-07 14:33 63.84381 -21.69069 8342 ft 269 kts 259°
2026-05-07 14:33 63.84042 -21.73251 8025 ft 267 kts 259°
2026-05-07 14:33 63.83707 -21.77347 7714 ft 265 kts 259°
2026-05-07 14:34 63.83373 -21.81417 7405 ft 264 kts 259°
2026-05-07 14:34 63.83033 -21.85541 7091 ft 262 kts 259°
2026-05-07 14:34 63.82698 -21.89584 6785 ft 260 kts 259°
2026-05-07 14:34 63.82362 -21.93624 6478 ft 259 kts 259°
2026-05-07 14:35 63.82024 -21.97654 6171 ft 257 kts 259°
2026-05-07 14:35 63.81690 -22.01651 5867 ft 256 kts 259°
2026-05-07 14:35 63.81361 -22.05559 5570 ft 254 kts 259°
2026-05-07 14:35 63.80991 -22.09483 5268 ft 253 kts 255°
2026-05-07 14:36 63.80492 -22.13254 4972 ft 251 kts 251°
2026-05-07 14:36 63.79930 -22.17013 4674 ft 250 kts 251°
2026-05-07 14:36 63.79370 -22.20696 4382 ft 249 kts 251°
2026-05-07 14:36 63.78812 -22.24369 4090 ft 248 kts 251°
2026-05-07 14:37 63.78249 -22.28068 3797 ft 247 kts 251°
2026-05-07 14:37 63.77174 -22.35242 3509 ft 229 kts 256°
2026-05-07 14:37 63.77178 -22.38689 3478 ft 223 kts 289°
2026-05-07 14:38 63.77994 -22.41712 3256 ft 222 kts 310°
2026-05-07 14:38 63.78992 -22.44325 3059 ft 221 kts 312°
2026-05-07 14:38 63.80008 -22.46953 2870 ft 220 kts 311°
2026-05-07 14:38 63.81002 -22.49576 2688 ft 220 kts 311°
2026-05-07 14:39 63.81991 -22.52232 2509 ft 219 kts 310°
2026-05-07 14:39 63.82969 -22.54882 2332 ft 219 kts 310°
2026-05-07 14:39 63.83937 -22.57520 2158 ft 218 kts 310°
2026-05-07 14:39 63.84915 -22.60100 2015 ft 209 kts 320°
2026-05-07 14:40 63.86147 -22.61365 2066 ft 187 kts 354°
2026-05-07 14:40 63.87375 -22.61204 1931 ft 167 kts
2026-05-07 14:40 63.88455 -22.60878 1690 ft 151 kts
2026-05-07 14:40 63.89460 -22.60663 1471 ft 139 kts
2026-05-07 14:41 63.90420 -22.60542 1292 ft 138 kts
2026-05-07 14:41 63.91386 -22.60525 1112 ft 138 kts
2026-05-07 14:41 63.92335 -22.60538 934 ft 137 kts
2026-05-07 14:41 63.93297 -22.60545 754 ft 137 kts
2026-05-07 14:42 63.94244 -22.60545 575 ft 137 kts
2026-05-07 14:42 63.95190 -22.60545 395 ft 136 kts
2026-05-07 14:42 63.96143 -22.60558 210 ft 136 kts
2026-05-07 14:42 63.97091 -22.60554 139 ft 136 kts
2026-05-07 14:43 63.97738 -22.60548 155 ft 48 kts
2026-05-07 14:43 63.97838 -22.60549 155 ft 0 kts 359°
2026-05-07 14:43 63.97892 -22.60551 156 ft 17 kts 359°
2026-05-07 14:43 63.98038 -22.60583 157 ft 19 kts 349°
2026-05-07 14:44 63.98182 -22.60711 154 ft 20 kts 332°
2026-05-07 14:44 63.98293 -22.60853 150 ft 22 kts 331°
2026-05-07 14:44 63.98425 -22.60952 147 ft 25 kts 360°
2026-05-07 14:44 63.98587 -22.60949 147 ft 22 kts
2026-05-07 14:45 63.98750 -22.60953 147 ft 26 kts 360°
2026-05-07 14:45 63.98911 -22.60951 144 ft 27 kts
2026-05-07 14:45 63.99049 -22.60950 143 ft 22 kts
2026-05-07 14:45 63.99166 -22.60989 143 ft 16 kts 300°
2026-05-07 14:46 63.99172 -22.61343 139 ft 18 kts 271°
2026-05-07 14:46 63.99240 -22.61438 139 ft 2 kts 359°
2026-05-07 14:46 63.99256 -22.61377 139 ft 10 kts 91°
2026-05-07 14:46 63.99257 -22.61263 140 ft 0 kts 90°